Weather History for Boscobel, WI

Change the Weather History Date:

Sunday, December 29, 2013

  Actual Average (KPDC) Record (KPDC)
Temperature  
Mean Temperature 16 °F -  
Max Temperature 37 °F 29 °F 59 °F (1984)
Min Temperature -9 °F 11 °F -11 °F (1963)
Degree Days  
Heating Degree Days 48    
Moisture  
Dew Point 10 °F    
Average Humidity 69    
Maximum Humidity 82    
Minimum Humidity 57    
Precipitation  
Precipitation 0.00 in - - ()
Sea Level Pressure  
Sea Level Pressure 30.03 in    
Wind  
Wind Speed 11 mph (NW)    
Max Wind Speed 22 mph    
Max Gust Speed 33 mph    
Visibility 9 miles    
Events Rain , Snow    
Averages and records for this station are not official NWS values.
T = Trace of Precipitation, MM = Missing Value Source: NWS Daily Summary

Daily Weather History Graph

Daily Weather History Graph

Search for Another Location

Airport:

Trip Planner

Search our weather history database for the weather conditions in past years. The results will help you decide how hot, cold, wet, or windy it might be!

Date:

Astronomy

Dec. 29, 2013 Rise Set
Actual Time 7:34 AM CST 4:35 PM CST
Civil Twilight 7:01 AM CST 5:08 PM CST
Nautical Twilight 6:25 AM CST 5:44 PM CST
Astronomical Twilight 5:51 AM CST 6:18 PM CST
Moon 4:15 AM CST (12/29) 2:15 PM CST (12/29)
Length of Visible Light 10h 06m
Length of Day
9h 01m
Waning Crescent, 11% of the Moon is Illuminated
Dec 29
Waning Crescent
Jan 1
New
Jan 7
First Quarter
Jan 15
Full
Jan 23
Last Quarter

Hourly Weather History & Observations

Time (CST) Temp. Windchill Dew Point Humidity Pressure Visibility Wind Dir Wind Speed Gust Speed Precip Events Conditions
12:46 AM 37.0 °F 31.6 °F 30.0 °F 76% 29.76 in 10.0 mi WSW 6.9 mph - N/A   Mostly Cloudy
12:53 AM 37.0 °F 31.6 °F 30.0 °F 76% 29.78 in 10.0 mi West 6.9 mph - N/A   Mostly Cloudy
1:41 AM 36.0 °F 26.3 °F 30.0 °F 79% 29.78 in 8.0 mi NW 16.1 mph 24.2 mph N/A   Overcast
1:53 AM 36.0 °F 28.0 °F 28.9 °F 76% 29.81 in 7.0 mi NW 11.5 mph - N/A   Overcast
2:53 AM 35.1 °F 27.4 °F 30.0 °F 82% 29.84 in 8.0 mi NNW 10.4 mph 20.7 mph N/A   Overcast
3:36 AM 35.1 °F 27.4 °F 30.0 °F 82% 29.83 in 6.0 mi NNW 10.4 mph 18.4 mph 0.00 in Rain Light Rain
3:53 AM 34.0 °F 24.2 °F 28.9 °F 82% 29.86 in 7.0 mi NNW 15.0 mph 21.9 mph 0.00 in Rain Light Rain
4:02 AM 32.0 °F 19.5 °F 27.0 °F 82% 29.84 in 10.0 mi NNW 21.9 mph 33.4 mph 0.00 in   Overcast
4:53 AM 28.0 °F 15.7 °F 21.9 °F 78% 29.91 in 10.0 mi NNW 17.3 mph 28.8 mph 0.00 in   Overcast
5:17 AM 28.0 °F 17.0 °F 21.0 °F 75% 29.91 in 10.0 mi NNW 13.8 mph 25.3 mph N/A   Overcast
5:53 AM 26.1 °F 13.1 °F 19.9 °F 78% 29.96 in 10.0 mi NNW 17.3 mph 26.5 mph N/A   Overcast
6:53 AM 24.1 °F 12.5 °F 16.0 °F 71% 30.00 in 10.0 mi NNW 12.7 mph 25.3 mph N/A   Overcast
7:53 AM 23.0 °F 10.6 °F 15.1 °F 72% 30.04 in 10.0 mi NNW 13.8 mph 21.9 mph N/A   Overcast
8:53 AM 21.9 °F 10.4 °F 12.0 °F 66% 29.53 in 10.0 mi NNW 11.5 mph 23.0 mph N/A   Overcast
9:53 AM 19.9 °F 6.7 °F 10.0 °F 65% 30.11 in 10.0 mi NNW 13.8 mph 24.2 mph N/A   Overcast
10:53 AM 19.9 °F 7.9 °F 9.0 °F 62% 29.53 in 10.0 mi NNW 11.5 mph 18.4 mph N/A   Overcast
11:53 AM 19.0 °F 4.5 °F 8.1 °F 62% 30.12 in 10.0 mi NNW 16.1 mph - 0.00 in   Overcast
12:53 PM 17.1 °F 3.0 °F 6.1 °F 62% 30.13 in 10.0 mi NNW 13.8 mph - N/A   Overcast
1:53 PM 16.0 °F 2.9 °F 5.0 °F 62% 30.15 in 10.0 mi NW 11.5 mph 20.7 mph 0.00 in   Overcast
2:53 PM 12.9 °F -1.6 °F 3.9 °F 67% 30.17 in 7.0 mi NW 12.7 mph - 0.00 in Snow Light Snow
3:53 PM 10.9 °F -4.1 °F 1.0 °F 64% 30.20 in 10.0 mi NNW 12.7 mph - 0.00 in   Overcast
4:53 PM 8.1 °F -7.0 °F -2.0 °F 64% 30.23 in 10.0 mi NW 11.5 mph 17.3 mph 0.00 in   Mostly Cloudy
5:03 PM 7.0 °F -7.5 °F -2.9 °F 64% 30.19 in 10.0 mi NW 10.4 mph - N/A   Scattered Clouds
5:53 PM 5.0 °F -4.1 °F -5.1 °F 63% 30.25 in 10.0 mi WNW 4.6 mph - N/A   Clear
6:53 PM 3.9 °F -5.3 °F -7.1 °F 60% 30.27 in 10.0 mi West 4.6 mph - N/A   Clear
7:53 PM 1.9 °F -7.6 °F -9.9 °F 58% 30.30 in 10.0 mi WNW 4.6 mph - N/A   Clear
8:53 PM -0.0 °F - -11.9 °F 57% 30.31 in 10.0 mi Calm Calm - N/A   Clear
9:53 PM -2.0 °F - -13.0 °F 60% 30.32 in 10.0 mi Calm Calm - N/A   Clear
10:53 PM -4.0 °F - -14.1 °F 62% 30.34 in 10.0 mi Calm Calm - N/A   Clear
11:53 PM -9.0 °F - -15.0 °F 75% 30.35 in 10.0 mi Calm Calm - N/A   Clear